Koen Clijmans

Koen Clijmans

Statistiques 2026

  • Courses courues : 33
  • Nb de victoires : 4
  • Nb de places : 12
  • Écart gagnant : 18
  • Réussite à la gagne : 12%
  • Réussite à la place : 36%
Musique : 5p 0p 3p 3p 0p 4p 0p 6p 6p 9p 2p 5p 5p 0p 0p 3p 0p 7p
DateRangCatégorieAlloc.Dist.HippodromeChevalPoidsSpé.
21/05/17 5 Galop 153 000€ Ger-Cologne Savile Row 58 Plat
20/05/17 1 Galop 7 000€ Ger-Dusseldorf Ahraam 61 Plat
15/05/17 1 Galop 4 000€ Be-Mons Miracle Ninetynine 61 Plat
15/05/17 2 Galop 4 000€ Be-Mons Zinger 57,5 Plat
15/05/17 5 Galop 8 000€ Be-Mons Hokulaya 58,5 Plat
14/05/17 1 Galop 3 600€ Ger-Krefeld Wilsons Ruby 57 Plat
14/05/17 8 Galop 8 750€ Ger-Krefeld Nacida 58 Plat
09/05/17 0 Mixte 22 000€ Strasbourg Mandalay 56 Plat
01/05/17 2 Galop 8 750€ Ger-Munich Kinetic Cross 57 Plat
01/05/17 6 Galop 5 500€ Ger-Munich All Access 57,5 Plat
01/05/17 5 Galop 8 750€ Ger-Munich Lord Of Bavaria 57,5 Plat
01/05/17 7 Galop 55 000€ Ger-Munich Manipur 58 Plat
30/04/17 8 Galop 25 000€ Ger-Dusseldorf Nareia 57 Plat
30/04/17 0 Galop 4 350€ Ger-Dusseldorf Brianna Bay 58 Plat
25/04/17 2 Galop 5 000€ Ger-Cologne Simineh 57 Plat
23/04/17 1 Galop 4 000€ Ger-Krefeld Ahraam 58 Plat
23/04/17 2 Galop 5 450€ Ger-Krefeld Emirati Spirit 63,5 Plat
23/04/17 3 Galop 55 000€ Ger-Krefeld Savile Row 58 Plat
21/04/17 2 Galop 16 000€ Fontainebleau Rye House 57,5 Plat
17/04/17 5 Galop 5 000€ Be-Mons Petruschka 60,5 Plat
17/04/17 3 Galop 6 400€ Be-Mons Munazan 60 Plat
17/04/17 1 Galop 5 600€ Be-Mons Patronne 61 Plat
17/04/17 4 Galop 8 000€ Be-Mons Miracle Ninetynine 58 Plat
09/04/17 4 Galop 8 750€ Ger-Dusseldorf Alessa 57 Plat
08/04/17 2 Galop 12 000€ Nancy Rye House 58 Plat
04/04/17 3 Galop 7 500€ Ger-Krefeld Rosendach 58,5 Plat
04/04/17 4 Galop 6 000€ Ger-Krefeld Edwin 57,5 Plat
02/04/17 8 Galop 27 000€ GER-HOPPEGARTEN La Celerina 56 Plat
02/04/17 5 Galop 5 100€ GER-HOPPEGARTEN Manipur 59 Plat
01/04/17 4 Galop 8 000€ Be-Mons Gerrard's Return 60 Plat
01/04/17 6 Galop 6 400€ Be-Mons Mitchell 59 Plat
01/04/17 5 Galop 4 800€ Be-Mons My Tringaling 63 Plat
01/04/17 7 Galop 4 000€ Be-Mons Ahraam 61 Plat
26/03/17 7 Galop 4 000€ Ger-Dusseldorf Giant Swing 57 Plat
26/03/17 3 Galop 8 750€ Ger-Dusseldorf Lord Of Bavaria 57 Plat
26/03/17 4 Galop 4 000€ Ger-Dusseldorf Lausanne 57,5 Plat
20/03/17 2 Galop 6 400€ Be-Mons My Tringaling 57,5 Plat
20/03/17 5 Galop 4 800€ Be-Mons Classe Power 58 Plat
20/03/17 4 Galop 6 400€ Be-Mons Duo Victorieux 57 Plat
13/03/17 0 Galop 16 000€ Compiegne Rye House 59 Plat lire

A toujours galopé dans la dernière partie du peloton.

10/03/17 2 Galop 6 000€ Ger-Neuss Rosendach 59,5 Plat
06/03/17 4 Galop 8 000€ Be-Mons Munazan 57 Plat
06/03/17 0 Galop 5 600€ Be-Mons Brianna Bay 61 Plat
20/02/17 4 Galop 8 000€ Be-Mons Rye House 61 Plat
20/02/17 0 Galop 8 000€ Be-Mons Patronne 58,5 Plat
20/02/17 8 Galop 4 800€ Be-Mons Mitchell 57 Plat
11/02/17 4 Galop 4 000€ Ger-Neuss Rosendach 58 Plat
06/02/17 2 Galop 8 000€ Be-Mons Rye House 58 Plat
06/02/17 2 Galop 8 000€ Be-Mons Aimee 57,5 Plat
23/01/17 7 Galop 4 000€ Be-Mons Tirion 61 Plat